Flag for China Weather past 2 weeks in Nanjing, Jiangsu, China

Now
36 °F

Fog.


Feels Like: 33 °F
Forecast: 30 / 58 °F
Wind: 3 mph from West

Location: Nanjing

Current Time: Dec 29, 2014 at 7:45:59 AM

Latest Report: Dec 29, 2014 at 7:00 AM


Visibility: 1 mi

Pressure: 30.15 "Hg

Humidity: 81%

Dew point: 30 °F

Location of NanjingLocation

Historic Weather in Nanjing — Graph

°F

Nanjing temperature yesterday

Maximum temperature yesterday: 55 °F (at 2:00 PM)
Minimum temperature yesterday: 32 °F (at 5:00 AM)
Average temperature yesterday: 42 °F

Past Weeks' High & Low Weather Summary

 TemperatureHumidityPressure
High55 °F (Dec 23, 2:00 PM)100% (Dec 14, 7:00 AM)30.63 "Hg (Dec 14, 7:00 AM)
Low21 °F (Dec 18, 6:00 AM)16% (Dec 17, 12:00 PM)30.12 "Hg (Dec 28, 3:00 PM)
Average38 °F61%30.39 "Hg
* Reported Dec 14 6:00 AM — Dec 29 6:00 AM, Nanjing, Weather by CustomWeather, © 2014

Note: Actual official high and low records may vary slightly from our data, if they occured in-between our weather recording intervals... More about our weather records

Advertising

Nanjing weather history for previous 24 hours

 ConditionsComfort  
Time TempWeatherWind HumidityBarometerVisibility
6:00 AM
Dec 29
39 °FFog.8 mph81%30.15 "Hg1 mi
5:00 AM37 °FFog.8 mph81%30.12 "Hg1 mi
4:00 AM36 °FFog.8 mph87%30.15 "Hg1 mi
3:00 AM37 °FFog.3 mph81%30.15 "Hg1 mi
2:00 AM39 °FFog.8 mph75%30.15 "Hg1 mi
1:00 AM37 °FFog.6 mph81%30.18 "Hg1 mi
12:00 AM39 °FPassing clouds.6 mph75%30.18 "Hg1 mi
11:00 PM
Dec 28
41 °FPassing clouds.8 mph70%30.18 "Hg1 mi
10:00 PM41 °FPassing clouds.8 mph76%30.18 "Hg1 mi
9:00 PM41 °FPassing clouds.6 mph70%30.18 "Hg1 mi
8:00 PM43 °FPassing clouds.8 mph66%30.15 "Hg2 mi
7:00 PM43 °FPassing clouds.8 mph71%30.15 "Hg2 mi
6:00 PM45 °FPassing clouds.8 mph66%30.15 "Hg2 mi
5:00 PM48 °FScattered clouds.6 mph50%30.12 "Hg2 mi
4:00 PM54 °FScattered clouds.10 mph44%30.12 "Hg2 mi
3:00 PM54 °FHaze.13 mph44%30.12 "Hg2 mi
2:00 PM55 °FHaze.13 mph38%30.15 "Hg3 mi
1:00 PM54 °FHaze.10 mph41%30.18 "Hg2 mi
12:00 PM52 °FHaze.10 mph47%30.21 "Hg2 mi
11:00 AM50 °FScattered clouds.10 mph62%30.27 "Hg1 mi
10:00 AM46 °FHaze.8 mph66%30.30 "Hg1 mi
9:00 AM41 °FFog.6 mph87%30.30 "Hg1 mi
8:00 AM36 °FFog.1 mph87%30.30 "Hg1 mi
7:00 AM34 °FFog.1 mph93%30.30 "Hg1 mi
Weather by CustomWeather, © 2014

See weather overviewHow to use our weather pages